Dauntless Aviation
Airports Europe Croatia
LDSP
SPU

Split

Split, CROATIA

Airport Info
Suggest Updated Information for this Airport

Location

Latitude / Longitude: 43°32'20"N / 16°17'52"E
  43°32.334'N / 16°17.88'E
  43.5389 / 16.2980

Nearby radio navigation aids

DVN DRVENIK NDB. 48.4° 8.7nm from DVN to field.
SPL SPLIT VOR/DME. 351.2° 2.6nm from SPL to field.
TRI TROGIR NDB. 50.4° 4.2nm from TRI to field.

Runway Information

Runway 05 /23

Dimensions: 8366 x 148 ft.
Surface: ASP
 
Runway 05
Runway 23
Latitude: 43.532053 43.545181
Longitude: 16.285583 16.309194
Elevation: 70 ft. 70 ft.
Runway true heading: 53.2 233.2
 

Instrument Procedures

  Aircraft Parking/Docking Chart
  Aerodrome Chart

STARs (Standard Terminal Arrivals)

  STAR - Instrument (STAR) - Rwy 23
  STAR - Instrument (STAR) - Rwy 05

IAPs (Instrument Approach Procedures)

  ATC Surveillance Minimum Altitude Chart
  VOR-B Rwy 23
  Bird Concentrations
  Visual Approach Chart
  NDB Rwy 05
  ILSz Rwy 05
  ILSy Rwy 05
  Aerodrome Obstacle Chart - Type A - Rwy 23
  Aerodrome Obstacle Chart - Type A - Rwy 05
  Visual Operation Chart

Departure Procedures

  SID - Instrument (SID) - Rwy 23
  SID - Instrument (SID) - Rwy 05
Satellite photo at:
Airport distance calculator
From:
Weather Reports

METAR

LDSP

LDSP 300030Z 10004KT 040V200 9999 SCT040 22/14 Q1010

TAF

LDSP
TAF LDSP 292325Z 3000/3024 11008KT CAVOK TX26/3013Z TN19/3004Z PROB30 TEMPO 3006/3014 4000 TSRA FEW015 SCT020CB BKN040 BECMG 3011/3013 23007KT BECMG 3016/3018 VRB02KT
LDSB
22.8nm E
TAF AMD LDSB 291256Z 2912/3012 14008KT CAVOK TX23/2913Z TN18/3004Z TEMPO 2913/2918 12018KT PROB30 TEMPO 3008/3012 TSRA FEW030CB SCT040
Safelog

 

Dauntless Aviation

© 2007-2016 Dauntless Aviation, all rights reserved
Information provided via PilotNav comes from a variety of official and unofficial data sources. As errors are possible, do not use PilotNav for primary flight planning purposes. Verify any information that you receive via PilotNav with current and canonical charts and other official documents. The material in this database is subject to database copyrights held by Dauntless Aviation and may not be copied without the express permission of Dauntless Aviation - licenses for use of part of all of this data are available for purchase; enquire via the Dauntless Aviation helpdesk. A number of mechanisms and markers exist in the database to protect against and identify infringement / copyright. Automated queries against this website are stictly prohibited, and all activity is logged and analyzed.